Bettles, AK

2:27 PM AKDT on July 20, 2019 (GMT -0800)
Bettles

Weather History for PABT - May, 2019

Change the Weather History Date:

Friday, May 10, 2019

  Actual Average Record
Temperature  
Mean Temperature 42 °F -  
Max Temperature 48 °F 48 °F 63 °F (2016)
Min Temperature 37 °F 30 °F -1 °F (1964)
Degree Days  
Heating Degree Days 22    
Moisture  
Dew Point 30 °F    
Average Humidity 63    
Maximum Humidity 86    
Minimum Humidity 41    
Precipitation  
Precipitation 0.08 in - - ()
Snow  
Snow 0.00 in - - ()
Snow Depth 22.00 in    
Sea Level Pressure  
Sea Level Pressure 29.73 in    
Wind  
Wind Speed 9 mph (NNE)    
Max Wind Speed 18 mph    
Max Gust Speed 28 mph    
Visibility 10 miles    
Events Rain    
Averages and records for this station are not official NWS values.
T = Trace of Precipitation, MM = Missing Value Source: NWS Daily Summary

Daily Weather History Graph

Daily Weather History Graph

Search for Another Location

Airport or City:

Astronomy

May. 10, 2019 Rise Set
Actual Time 4:35 AM AKDT 11:32 PM AKDT
Civil Twilight 2:34 AM AKDT 1:30 AM AKDT
Nautical Twilight Sun does not set Sun does not set
Astronomical Twilight Sun does not set Sun does not set
Moon 9:05 AM AKDT (5/10) 5:17 AM AKDT (5/10)
Length of Visible Light 22h 55m
Length of Day
18h 56m
Waxing Crescent, 36% of the Moon is Illuminated
May 10
Waxing Crescent
May 11
First Quarter
May 18
Full
May 26
Last Quarter
Jun 3
New

Hourly Weather History & Observations

Time (AKDT) Temp. Windchill Dew Point Humidity Pressure Visibility Wind Dir Wind Speed Gust Speed Precip Events Conditions
12:53 AM 39.0 °F 34.8 °F 28.9 °F 67% 30.06 in 10.0 mi NNE 5.8 mph - N/A   Partly Cloudy
1:53 AM 37.9 °F 34.4 °F 28.0 °F 68% 30.03 in 10.0 mi North 4.6 mph - N/A   Partly Cloudy
2:53 AM 37.9 °F - 28.0 °F 68% 30.00 in 10.0 mi Calm Calm - N/A   Partly Cloudy
3:53 AM 37.0 °F 31.0 °F 28.0 °F 70% 29.97 in 10.0 mi North 8.1 mph - N/A   Partly Cloudy
4:53 AM 37.0 °F 30.4 °F 28.0 °F 70% 29.94 in 10.0 mi NNE 9.2 mph - N/A   Scattered Clouds
5:53 AM 37.0 °F 30.4 °F 28.0 °F 70% 29.91 in 10.0 mi NNE 9.2 mph - N/A   Mostly Cloudy
6:53 AM 37.9 °F 31.5 °F 28.0 °F 68% 29.88 in 10.0 mi North 9.2 mph - N/A   Mostly Cloudy
7:53 AM 39.9 °F 33.4 °F 28.0 °F 63% 29.84 in 10.0 mi NNE 10.4 mph - N/A   Mostly Cloudy
8:53 AM 41.0 °F 34.3 °F 27.0 °F 57% 29.80 in 10.0 mi NNE 11.5 mph - N/A   Scattered Clouds
9:53 AM 44.1 °F 37.7 °F 27.0 °F 51% 29.77 in 10.0 mi NNE 12.7 mph - N/A   Mostly Cloudy
10:53 AM 46.0 °F 39.6 °F 26.1 °F 46% 29.75 in 10.0 mi NE 15.0 mph 23.0 mph N/A   Overcast
11:53 AM 46.9 °F - 26.1 °F 44% 29.71 in 10.0 mi NE 16.1 mph 26.5 mph N/A   Overcast
12:53 PM 46.9 °F - 26.1 °F 44% 29.69 in 10.0 mi NE 11.5 mph 20.7 mph N/A   Overcast
1:53 PM 45.0 °F 37.6 °F 30.9 °F 58% 29.65 in 10.0 mi NE 17.3 mph 27.6 mph 0.00 in   Overcast
2:53 PM 45.0 °F 37.4 °F 30.9 °F 58% 29.61 in 10.0 mi NNE 18.4 mph 26.5 mph 0.00 in Rain Light Rain
3:53 PM 46.9 °F - 30.9 °F 54% 29.57 in 10.0 mi NNE 13.8 mph 27.6 mph 0.00 in Rain Light Rain
4:53 PM 48.0 °F - 30.0 °F 50% 29.57 in 10.0 mi NNE 16.1 mph 24.2 mph 0.00 in   Overcast
5:53 PM 48.0 °F - 30.9 °F 52% 29.56 in 10.0 mi NE 13.8 mph 24.2 mph N/A   Overcast
6:53 PM 46.0 °F 40.6 °F 30.9 °F 56% 29.56 in 10.0 mi NE 11.5 mph 20.7 mph N/A   Overcast
7:53 PM 44.1 °F 40.1 °F 32.0 °F 63% 29.56 in 10.0 mi ENE 6.9 mph - 0.00 in Rain Light Rain
8:53 PM 39.9 °F 32.1 °F 35.1 °F 83% 29.56 in 7.0 mi NE 13.8 mph 20.7 mph 0.04 in Rain Light Rain
9:53 PM 39.0 °F 30.3 °F 35.1 °F 86% 29.54 in 10.0 mi NNE 16.1 mph 25.3 mph 0.03 in Rain Light Rain
10:53 PM 39.9 °F 34.5 °F 35.1 °F 83% 29.54 in 10.0 mi NE 8.1 mph - 0.00 in   Overcast
11:53 PM 39.0 °F 33.4 °F 34.0 °F 82% 29.54 in 10.0 mi NNE 8.1 mph - N/A   Overcast